Location: Moscow
(55.7500°N, 37.5830°E)
Time: 20:09:07
(UTC+03:00)

Transit 2A Rocket - Pass Details

Date: 02 December 2021
Orbit: 584 x 917 km, 66.7° (Epoch: 23 January)

Event Time Altitude Azimuth Distance (km) Brightness Sun altitude
Rises 17:45:26 0° 315° (NW) 3,567 8.8 -13.5°
Reaches altitude 10° 17:48:14 10° 306° (NW) 2,615 8.2 -13.9°
Maximum altitude 17:53:30 31° 247° (WSW) 1,521 7.3 -14.6°
Drops below altitude 10° 17:58:34 10° 187° (S) 2,502 8.0 -15.3°
Sets 18:01:12 0° 177° (S) 3,390 8.5 -15.6°
